This is the latest recevied weather packets stored in our database for station/object N0KTA-2. If no packets are shown the sender has not sent any weather packets the latest 10 day(s).
| Time | Temp. | Humidity | Pressure | Rain* | Wind** | Luminosity | Snow |
|---|---|---|---|---|---|---|---|
| 1777912163 | 24.44° C | 46% | 999.5 hPa | 0 mm | - | - | - |
| 1777911564 | 24.44° C | 46% | 999.4 hPa | 0 mm | - | - | - |
| 1777910963 | 24.44° C | 48% | 999.5 hPa | 0 mm | - | - | - |
| 1777910364 | 23.89° C | 47% | 999.4 hPa | 0 mm | - | - | - |
| 1777909763 | 22.78° C | 50% | 999.6 hPa | 0 mm | - | - | - |
| 1777909164 | 22.78° C | 49% | 999.9 hPa | 0 mm | - | - | - |
| 1777908563 | 22.78° C | 50% | 999.9 hPa | 0 mm | - | - | - |
| 1777907964 | 22.22° C | 51% | 1000 hPa | 0 mm | - | - | - |
| 1777907366 | 21.67° C | 53% | 1000.1 hPa | 0 mm | - | - | - |
| 1777906765 | 21.11° C | 52% | 1000.2 hPa | 0 mm | - | - | - |
| 1777906166 | 21.11° C | 52% | 1000.2 hPa | 0 mm | - | - | - |
| 1777905565 | 21.11° C | 53% | 1000.4 hPa | 0 mm | - | - | - |
| 1777904966 | 20.56° C | 53% | 1000.5 hPa | 0 mm | - | - | - |
| 1777904365 | 20° C | 55% | 1000.5 hPa | 0 mm | - | - | - |
| 1777903765 | 19.44° C | 56% | 1000.6 hPa | 0 mm | - | - | - |
| 1777903166 | 18.89° C | 56% | 1000.7 hPa | 0 mm | - | - | - |
| 1777902565 | 18.33° C | 57% | 1000.6 hPa | 0 mm | - | - | - |
| 1777901966 | 18.33° C | 56% | 1000.4 hPa | 0 mm | - | - | - |
| 1777901365 | 18.33° C | 56% | 1000.3 hPa | 0 mm | - | - | - |
| 1777900766 | 18.33° C | 57% | 1000.6 hPa | 0 mm | - | - | - |
| 1777900165 | 17.78° C | 56% | 1000.5 hPa | 0 mm | - | - | - |
| 1777899566 | 17.22° C | 58% | 1000.4 hPa | 0 mm | - | - | - |
| 1777898965 | 17.22° C | 58% | 1000.5 hPa | 0 mm | - | - | - |
| 1777898365 | 17.22° C | 58% | 1000.5 hPa | 0 mm | - | - | - |
| 1777897766 | 17.22° C | 57% | 1000.5 hPa | 0 mm | - | - | - |
* Rain latest hour (hover to see other rain measurements)
** Current wind speed in m/s (hover to see current wind gust speed)